This is the latest recevied weather packets stored in our database for station/object KY4EF. If no packets are shown the sender has not sent any weather packets the latest 10 day(s).
| Time | Temp. | Humidity | Pressure | Rain* | Wind** | Luminosity | Snow |
|---|---|---|---|---|---|---|---|
| 1777849871 | 16.67° C | 42% | 1015.3 hPa | 0 mm | - | 26 W/m² | - |
| 1777849568 | 16.67° C | 42% | 1015.3 hPa | 0 mm | - | 33 W/m² | - |
| 1777849265 | 16.67° C | 41% | 1015.3 hPa | 0 mm | - | 29 W/m² | - |
| 1777848963 | 16.67° C | 42% | 1015.3 hPa | 0 mm | - | 30 W/m² | - |
| 1777848657 | 16.67° C | 42% | 1015.3 hPa | 0 mm | - | 30 W/m² | - |
| 1777848355 | 16.67° C | 40% | 1015.1 hPa | 0 mm | - | 32 W/m² | - |
| 1777848053 | 16.67° C | 39% | 1015.5 hPa | 0 mm | - | 34 W/m² | - |
| 1777847751 | 16.67° C | 39% | 1015.3 hPa | 0 mm | - | 33 W/m² | - |
| 1777847445 | 16.67° C | 40% | 1015.5 hPa | 0 mm | - | 34 W/m² | - |
| 1777847144 | 17.22° C | 39% | 1015.2 hPa | 0 mm | - | 35 W/m² | - |
| 1777846842 | 17.22° C | 39% | 1015.2 hPa | 0 mm | - | 36 W/m² | - |
| 1777846539 | 17.22° C | 38% | 1015.5 hPa | 0 mm | - | 38 W/m² | - |
| 1777846236 | 17.22° C | 39% | 1015.2 hPa | 0 mm | - | 56 W/m² | - |
| 1777845933 | 17.78° C | 38% | 1015.2 hPa | 0 mm | - | 51 W/m² | - |
| 1777845629 | 17.78° C | 38% | 1015.5 hPa | 0 mm | - | 62 W/m² | - |
| 1777845327 | 18.33° C | 37% | 1015.3 hPa | 0 mm | - | 282 W/m² | - |
| 1777845024 | 18.33° C | 37% | 1015.2 hPa | 0 mm | - | 194 W/m² | - |
| 1777844722 | 18.89° C | 37% | 1015.5 hPa | 0 mm | - | 95 W/m² | - |
| 1777844418 | 18.89° C | 37% | 1015.3 hPa | 0 mm | - | 276 W/m² | - |
| 1777844117 | 19.44° C | 34% | 1015.5 hPa | 0 mm | - | 345 W/m² | - |
| 1777843813 | 19.44° C | 36% | 1015.5 hPa | 0 mm | - | 359 W/m² | - |
| 1777843511 | 19.44° C | 36% | 1015.5 hPa | 0 mm | - | 375 W/m² | - |
| 1777843208 | 18.89° C | 36% | 1015.7 hPa | 0 mm | - | 390 W/m² | - |
| 1777842905 | 18.89° C | 37% | 1015.5 hPa | 0 mm | - | 405 W/m² | - |
| 1777842600 | 18.89° C | 37% | 1015.6 hPa | 0 mm | - | 419 W/m² | - |
* Rain latest hour (hover to see other rain measurements)
** Current wind speed in m/s (hover to see current wind gust speed)